| time (UTC) | temp F | wind direction | speed MPH | gust MPH | rain 1hr in | rain 24hr in | rain mn in | humidity % | barometer mb |
| 20260508155720 | 79 | 21 | 2.0 | 4.0 | 0.00 | 0.00 | 0.00 | 89 | 1006.7 |
| 20260508155218 | 77 | 17 | 3.0 | 4.0 | 0.00 | 0.00 | 0.00 | 90 | 1006.7 |
| 20260508154714 | 78 | 194 | 1.0 | 1.0 | 0.00 | 0.00 | 0.00 | 91 | 1006.6 |
| 20260508154211 | 76 | 231 | 1.0 | 2.0 | 0.00 | 0.00 | 0.00 | 92 | 1006.6 |
| 20260508153708 | 76 | 6 | 1.0 | 2.0 | 0.00 | 0.00 | 0.00 | 92 | 1006.4 |
| 20260508153205 | 75 | 207 | 0.0 | 1.0 | 0.00 | 0.00 | 0.00 | 92 | 1006.6 |
| 20260508152702 | 75 | 201 | 0.0 | 0.0 | 0.00 | 0.00 | 0.00 | 92 | 1006.7 |
| 20260508152157 | 75 | 326 | 2.0 | 4.0 | 0.00 | 0.00 | 0.00 | 92 | 1006.7 |
| 20260508151654 | 75 | 331 | 2.0 | 2.0 | 0.00 | 0.00 | 0.00 | 92 | 1006.6 |
| 20260508151151 | 75 | 341 | 1.0 | 2.0 | 0.00 | 0.00 | 0.00 | 91 | 1006.6 |
| 20260508150648 | 75 | 72 | 1.0 | 2.0 | 0.00 | 0.00 | 0.00 | 92 | 1006.8 |
| 20260508150144 | 74 | 9 | 2.0 | 2.0 | 0.00 | 0.00 | 0.00 | 93 | 1007.2 |
| 20260508145640 | 73 | 242 | 1.0 | 2.0 | 0.00 | 0.00 | 0.00 | 93 | 1007.2 |
| 20260508145137 | 73 | 249 | 0.0 | 1.0 | 0.00 | 0.00 | 0.00 | 93 | 1007.3 |
| 20260508144634 | 73 | 186 | 0.0 | 1.0 | 0.00 | 0.00 | 0.00 | 94 | 1007.4 |
| 20260508144132 | 73 | 222 | 1.0 | 1.0 | 0.00 | 0.00 | 0.00 | 94 | 1007.4 |
| 20260508143629 | 72 | 196 | 0.0 | 0.0 | 0.00 | 0.00 | 0.00 | 94 | 1007.4 |
| 20260508143126 | 72 | 224 | 0.0 | 1.0 | 0.00 | 0.00 | 0.00 | 94 | 1007.8 |
| 20260508142622 | 72 | 128 | 1.0 | 2.0 | 0.00 | 0.00 | 0.00 | 94 | 1007.8 |
| 20260508142119 | 72 | 44 | 2.0 | 3.0 | 0.00 | 0.00 | 0.00 | 94 | 1007.9 |
| 20260508141616 | 72 | 223 | 0.0 | 0.0 | 0.00 | 0.00 | 0.00 | 94 | 1007.8 |
| 20260508141113 | 72 | 227 | 2.0 | 3.0 | 0.00 | 0.00 | 0.00 | 94 | 1008.0 |
| 20260508140610 | 71 | 225 | 1.0 | 1.0 | 0.00 | 0.00 | 0.00 | 94 | 1008.0 |
| 20260508140107 | 71 | 210 | 0.0 | 0.0 | 0.00 | 0.00 | 0.00 | 94 | 1007.9 |
| 20260508135602 | 71 | 26 | 1.0 | 2.0 | 0.00 | 0.00 | 0.00 | 93 | 1007.8 |
| 20260508135059 | 71 | 247 | 0.0 | 1.0 | 0.00 | 0.00 | 0.00 | 93 | 1007.6 |
| 20260508134556 | 71 | 106 | 2.0 | 2.0 | 0.00 | 0.00 | 0.00 | 93 | 1007.7 |
| 20260508134053 | 71 | 249 | 0.0 | 1.0 | 0.00 | 0.00 | 0.00 | 93 | 1007.4 |
| 20260508133549 | 71 | 215 | 0.0 | 0.0 | 0.00 | 0.00 | 0.00 | 93 | 1007.5 |
| 20260508133046 | 70 | 214 | 0.0 | 1.0 | 0.00 | 0.00 | 0.00 | 93 | 1007.7 |
| 20260508132539 | 70 | 209 | 0.0 | 0.0 | 0.00 | 0.00 | 0.00 | 93 | 1007.5 |
| 20260508132035 | 70 | 342 | 2.0 | 6.0 | 0.00 | 0.00 | 0.00 | 94 | 1008.0 |
| 20260508131531 | 69 | 223 | 1.0 | 2.0 | 0.00 | 0.00 | 0.00 | 94 | 1008.0 |
| 20260508131028 | 69 | 193 | 2.0 | 3.0 | 0.00 | 0.00 | 0.00 | 94 | 1007.8 |
| 20260508130525 | 69 | 284 | 3.0 | 3.0 | 0.00 | 0.00 | 0.00 | 95 | 1008.0 |
| 20260508130021 | 69 | 229 | 3.0 | 4.0 | 0.00 | 0.00 | 0.00 | 95 | 1008.2 |
| 20260508125517 | 69 | 289 | 3.0 | 3.0 | 0.00 | 0.00 | 0.00 | 95 | 1007.9 |
| 20260508125015 | 69 | 261 | 2.0 | 3.0 | 0.00 | 0.00 | 0.00 | 95 | 1007.8 |
| 20260508124513 | 69 | 242 | 2.0 | 3.0 | 0.00 | 0.00 | 0.00 | 96 | 1007.8 |
| 20260508124010 | 68 | 338 | 2.0 | 3.0 | 0.00 | 0.00 | 0.00 | 96 | 1007.5 |
| 20260508123508 | 68 | 294 | 2.0 | 3.0 | 0.00 | 0.00 | 0.00 | 97 | 1007.5 |
| 20260508123004 | 68 | 320 | 2.0 | 2.0 | 0.00 | 0.00 | 0.00 | 98 | 1007.6 |
| 20260508122502 | 68 | 320 | 2.0 | 2.0 | 0.00 | 0.00 | 0.00 | 98 | 1007.6 |
| 20260508121958 | 69 | 320 | 2.0 | 3.0 | 0.00 | 0.00 | 0.00 | 98 | 1007.6 |
| 20260508121456 | 69 | 321 | 2.0 | 2.0 | 0.00 | 0.00 | 0.00 | 99 | 1007.4 |
| 20260508120954 | 69 | 321 | 4.0 | 6.0 | 0.00 | 0.00 | 0.00 | 99 | 1007.2 |
| 20260508120451 | 69 | 321 | 3.0 | 4.0 | 0.00 | 0.00 | 0.00 | 99 | 1007.3 |
| 20260508115949 | 69 | 322 | 2.0 | 3.0 | 0.00 | 0.00 | 0.00 | 99 | 1007.2 |
| 20260508115447 | 69 | 322 | 2.0 | 3.0 | 0.00 | 0.00 | 0.00 | 99 | 1007.2 |
| 20260508114943 | 70 | 321 | 0.0 | 0.0 | 0.00 | 0.00 | 0.00 | 99 | 1007.0 |
| 20260508114440 | 71 | 321 | 2.0 | 3.0 | 0.00 | 0.00 | 0.00 | 99 | 1007.0 |
| 20260508113937 | 71 | 321 | 2.0 | 2.0 | 0.00 | 0.00 | 0.00 | 99 | 1006.8 |
| 20260508113434 | 70 | 320 | 1.0 | 2.0 | 0.00 | 0.00 | 0.00 | 99 | 1006.8 |
| 20260508112931 | 70 | 320 | 2.0 | 3.0 | 0.00 | 0.00 | 0.00 | 99 | 1006.6 |
| 20260508112428 | 70 | 320 | 5.0 | 7.0 | 0.00 | 0.00 | 0.00 | 99 | 1006.8 |
| 20260508111925 | 71 | 320 | 6.0 | 8.0 | 0.00 | 0.00 | 0.00 | 99 | 1006.5 |
| 20260508111422 | 71 | 320 | 1.0 | 2.0 | 0.00 | 0.00 | 0.00 | 99 | 1006.5 |
| 20260508110919 | 71 | 320 | 2.0 | 3.0 | 0.00 | 0.00 | 0.00 | 99 | 1006.4 |
| 20260508110416 | 71 | 320 | 1.0 | 2.0 | 0.00 | 0.00 | 0.00 | 99 | 1006.4 |
| 20260508105910 | 71 | 320 | 0.0 | 0.0 | 0.00 | 0.00 | 0.00 | 99 | 1006.4 |
| 20260508105407 | 71 | 317 | 1.0 | 2.0 | 0.00 | 0.00 | 0.00 | 99 | 1006.3 |
| 20260508104904 | 71 | 302 | 0.0 | 0.0 | 0.00 | 0.00 | 0.00 | 99 | 1006.3 |
| 20260508104401 | 71 | 277 | 1.0 | 1.0 | 0.00 | 0.00 | 0.00 | 99 | 1006.2 |
| 20260508103858 | 71 | 311 | 0.0 | 1.0 | 0.00 | 0.00 | 0.00 | 99 | 1005.8 |
| 20260508103355 | 71 | 288 | 1.0 | 2.0 | 0.00 | 0.00 | 0.00 | 99 | 1006.1 |
| 20260508102852 | 71 | 300 | 1.0 | 1.0 | 0.00 | 0.00 | 0.00 | 99 | 1005.8 |
| 20260508102351 | 71 | 166 | 0.0 | 0.0 | 0.00 | 0.00 | 0.00 | 99 | 1005.9 |
| 20260508101848 | 71 | 253 | 1.0 | 1.0 | 0.00 | 0.00 | 0.00 | 99 | 1006.0 |
| 20260508101345 | 71 | 231 | 1.0 | 1.0 | 0.00 | 0.00 | 0.00 | 99 | 1005.9 |
| 20260508100842 | 71 | 36 | 0.0 | 0.0 | 0.00 | 0.00 | 0.00 | 99 | 1006.2 |
| 20260508100341 | 71 | 228 | 0.0 | 1.0 | 0.00 | 0.00 | 0.00 | 99 | 1006.7 |
| 20260508095836 | 71 | 295 | 2.0 | 3.0 | 0.00 | 0.00 | 0.00 | 99 | 1006.7 |
| 20260508095334 | 71 | 204 | 0.0 | 1.0 | 0.00 | 0.00 | 0.00 | 99 | 1006.6 |
| 20260508094831 | 71 | 247 | 1.0 | 2.0 | 0.00 | 0.00 | 0.00 | 99 | 1006.7 |
| 20260508094328 | 71 | 266 | 1.0 | 2.0 | 0.00 | 0.00 | 0.00 | 99 | 1006.6 |
| 20260508093825 | 71 | 244 | 0.0 | 0.0 | 0.00 | 0.00 | 0.00 | 99 | 1006.8 |
| 20260508093322 | 71 | 236 | 0.0 | 0.0 | 0.00 | 0.00 | 0.00 | 99 | 1006.7 |
| 20260508092820 | 71 | 246 | 1.0 | 2.0 | 0.00 | 0.00 | 0.00 | 99 | 1006.5 |
| 20260508092318 | 72 | 257 | 2.0 | 3.0 | 0.00 | 0.00 | 0.00 | 99 | 1006.7 |
| 20260508091816 | 72 | 228 | 2.0 | 3.0 | 0.00 | 0.00 | 0.00 | 99 | 1006.8 |
| 20260508091311 | 72 | 225 | 0.0 | 0.0 | 0.00 | 0.00 | 0.00 | 99 | 1006.9 |
| 20260508090810 | 73 | 283 | 0.0 | 0.0 | 0.00 | 0.00 | 0.00 | 99 | 1007.1 |
| 20260508090308 | 73 | 260 | 0.0 | 0.0 | 0.00 | 0.00 | 0.00 | 99 | 1007.0 |
| 20260508085803 | 73 | 285 | 2.0 | 2.0 | 0.00 | 0.00 | 0.00 | 99 | 1007.0 |
| 20260508085300 | 73 | 281 | 1.0 | 2.0 | 0.00 | 0.00 | 0.00 | 99 | 1006.9 |
| 20260508084756 | 73 | 242 | 1.0 | 1.0 | 0.00 | 0.00 | 0.00 | 99 | 1006.8 |
| 20260508084254 | 73 | 266 | 2.0 | 2.0 | 0.00 | 0.00 | 0.00 | 99 | 1006.9 |
| 20260508083751 | 73 | 286 | 1.0 | 2.0 | 0.00 | 0.00 | 0.00 | 99 | 1006.8 |
| 20260508083249 | 73 | 264 | 2.0 | 2.0 | 0.00 | 0.00 | 0.00 | 99 | 1006.8 |
| 20260508082748 | 73 | 222 | 0.0 | 0.0 | 0.00 | 0.00 | 0.00 | 99 | 1006.7 |
| 20260508082246 | 73 | 215 | 0.0 | 0.0 | 0.00 | 0.00 | 0.00 | 99 | 1006.8 |
| 20260508081743 | 73 | 287 | 0.0 | 2.0 | 0.00 | 0.00 | 0.00 | 99 | 1007.1 |
| 20260508081240 | 73 | 233 | 0.0 | 0.0 | 0.00 | 0.00 | 0.00 | 99 | 1007.4 |
| 20260508080737 | 73 | 248 | 0.0 | 0.0 | 0.00 | 0.00 | 0.00 | 99 | 1007.6 |
| 20260508080235 | 73 | 234 | 0.0 | 0.0 | 0.00 | 0.00 | 0.00 | 99 | 1007.8 |
| 20260508075731 | 73 | 219 | 0.0 | 0.0 | 0.00 | 0.00 | 0.00 | 99 | 1007.8 |
| 20260508075228 | 73 | 229 | 0.0 | 0.0 | 0.00 | 0.00 | 0.00 | 99 | 1007.7 |
| 20260508074726 | 73 | 210 | 0.0 | 0.0 | 0.00 | 0.00 | 0.00 | 99 | 1007.7 |
| 20260508074223 | 73 | 200 | 0.0 | 0.0 | 0.00 | 0.00 | 0.00 | 99 | 1007.5 |
| 20260508073720 | 73 | 213 | 0.0 | 0.0 | 0.00 | 0.00 | 0.00 | 99 | 1007.7 |
| 20260508073218 | 73 | 205 | 0.0 | 0.0 | 0.00 | 0.00 | 0.00 | 99 | 1007.7 |
| 20260508072714 | 73 | 218 | 0.0 | 0.0 | 0.00 | 0.00 | 0.00 | 99 | 1007.8 |
| 20260508072211 | 73 | 218 | 0.0 | 0.0 | 0.00 | 0.00 | 0.00 | 99 | 1007.8 |
| 20260508071708 | 73 | 216 | 0.0 | 0.0 | 0.00 | 0.00 | 0.00 | 99 | 1007.9 |
| 20260508071206 | 73 | 218 | 0.0 | 0.0 | 0.00 | 0.00 | 0.00 | 99 | 1008.0 |
| 20260508070703 | 73 | 218 | 0.0 | 0.0 | 0.00 | 0.00 | 0.00 | 99 | 1008.1 |
| 20260508070202 | 73 | 212 | 0.0 | 0.0 | 0.00 | 0.00 | 0.00 | 99 | 1007.7 |
| 20260508065659 | 73 | 213 | 0.0 | 0.0 | 0.00 | 0.00 | 0.00 | 99 | 1007.8 |
| 20260508065157 | 73 | 215 | 0.0 | 0.0 | 0.00 | 0.00 | 0.00 | 99 | 1007.8 |
| 20260508064654 | 73 | 29 | 2.0 | 3.0 | 0.00 | 0.00 | 0.00 | 99 | 1007.6 |
| 20260508064152 | 73 | 47 | 3.0 | 3.0 | 0.00 | 0.00 | 0.00 | 99 | 1007.8 |
| 20260508063649 | 73 | 202 | 0.0 | 0.0 | 0.00 | 0.00 | 0.00 | 99 | 1008.1 |
| 20260508063147 | 73 | 219 | 0.0 | 0.0 | 0.00 | 0.00 | 0.00 | 99 | 1008.2 |
| 20260508062644 | 73 | 210 | 0.0 | 0.0 | 0.00 | 0.00 | 0.00 | 99 | 1008.2 |
| 20260508062141 | 73 | 196 | 0.0 | 1.0 | 0.00 | 0.00 | 0.00 | 98 | 1008.5 |
| 20260508061638 | 74 | 142 | 1.0 | 2.0 | 0.00 | 0.00 | 0.00 | 98 | 1008.4 |
| 20260508061136 | 73 | 215 | 0.0 | 0.0 | 0.00 | 0.00 | 0.00 | 98 | 1008.4 |
| 20260508060632 | 74 | 223 | 0.0 | 1.0 | 0.00 | 0.00 | 0.00 | 97 | 1008.1 |
| 20260508060130 | 74 | 231 | 1.0 | 1.0 | 0.00 | 0.00 | 0.00 | 97 | 1007.8 |
| 20260508055625 | 74 | 307 | 1.0 | 2.0 | 0.00 | 0.00 | 0.00 | 97 | 1007.9 |
| 20260508055122 | 73 | 244 | 2.0 | 2.0 | 0.00 | 0.00 | 0.00 | 97 | 1007.7 |
| 20260508054618 | 73 | 8 | 2.0 | 3.0 | 0.00 | 0.00 | 0.00 | 97 | 1007.9 |
| 20260508054116 | 73 | 208 | 0.0 | 0.0 | 0.00 | 0.00 | 0.00 | 97 | 1008.0 |
| 20260508053613 | 73 | 64 | 1.0 | 2.0 | 0.00 | 0.00 | 0.00 | 97 | 1008.2 |
| 20260508053111 | 73 | 261 | 1.0 | 2.0 | 0.00 | 0.00 | 0.00 | 96 | 1007.9 |
| 20260508052608 | 73 | 251 | 2.0 | 3.0 | 0.00 | 0.00 | 0.00 | 96 | 1007.8 |
| 20260508052105 | 73 | 205 | 2.0 | 3.0 | 0.00 | 0.00 | 0.00 | 96 | 1007.6 |
| 20260508051601 | 73 | 345 | 2.0 | 3.0 | 0.00 | 0.00 | 0.00 | 96 | 1007.8 |
| 20260508051056 | 73 | 194 | 1.0 | 2.0 | 0.00 | 0.00 | 0.00 | 96 | 1007.6 |
| 20260508050553 | 73 | 220 | 0.0 | 0.0 | 0.00 | 0.00 | 0.00 | 96 | 1008.2 |
| 20260508050050 | 73 | 218 | 1.0 | 1.0 | 0.00 | 0.00 | 0.00 | 96 | 1008.6 |
| 20260508045546 | 73 | 200 | 0.0 | 1.0 | 0.00 | 0.00 | 0.00 | 96 | 1009.0 |
| 20260508045044 | 73 | 202 | 0.0 | 1.0 | 0.00 | 0.00 | 0.00 | 96 | 1009.2 |
| 20260508044541 | 73 | 181 | 2.0 | 2.0 | 0.00 | 0.00 | 0.00 | 96 | 1009.1 |
| 20260508044037 | 73 | 190 | 2.0 | 2.0 | 0.00 | 0.00 | 0.00 | 96 | 1009.3 |
| 20260508043534 | 73 | 216 | 0.0 | 0.0 | 0.00 | 0.00 | 0.00 | 96 | 1009.3 |
| 20260508043031 | 73 | 198 | 1.0 | 1.0 | 0.00 | 0.00 | 0.00 | 96 | 1008.2 |
| 20260508042528 | 73 | 347 | 4.0 | 6.0 | 0.00 | 0.00 | 0.00 | 96 | 1007.5 |
| 20260508042025 | 73 | 243 | 2.0 | 3.0 | 0.00 | 0.00 | 0.00 | 96 | 1007.1 |
| 20260508041521 | 73 | 168 | 6.0 | 10.0 | 0.00 | 0.00 | 0.00 | 96 | 1006.8 |
| 20260508041018 | 73 | 308 | 2.0 | 3.0 | 0.00 | 0.00 | 0.00 | 95 | 1006.4 |
| 20260508040515 | 73 | 312 | 4.0 | 6.0 | 0.00 | 0.00 | 0.00 | 95 | 1005.9 |
| 20260508040013 | 72 | 213 | 3.0 | 6.0 | 0.00 | 0.00 | 0.00 | 95 | 1006.4 |
| 20260508035509 | 72 | 334 | 2.0 | 2.0 | 0.00 | 0.00 | 0.00 | 95 | 1006.6 |
| 20260508035006 | 72 | 356 | 3.0 | 3.0 | 0.00 | 0.00 | 0.00 | 95 | 1007.3 |
| 20260508034504 | 72 | 10 | 4.0 | 6.0 | 0.00 | 0.00 | 0.00 | 95 | 1007.5 |
| 20260508034000 | 72 | 165 | 1.0 | 1.0 | 0.00 | 0.00 | 0.00 | 94 | 1007.5 |
| 20260508033458 | 72 | 12 | 2.0 | 4.0 | 0.00 | 0.00 | 0.00 | 93 | 1008.0 |
| 20260508032955 | 72 | 41 | 3.0 | 4.0 | 0.00 | 0.00 | 0.00 | 93 | 1008.3 |
| 20260508032453 | 72 | 350 | 3.0 | 3.0 | 0.00 | 0.00 | 0.00 | 92 | 1008.2 |
| 20260508031949 | 71 | 233 | 2.0 | 3.0 | 0.00 | 0.00 | 0.00 | 92 | 1008.2 |
| 20260508031447 | 72 | 345 | 4.0 | 4.0 | 0.00 | 0.00 | 0.00 | 92 | 1008.4 |
| 20260508030942 | 72 | 353 | 3.0 | 3.0 | 0.00 | 0.00 | 0.00 | 91 | 1008.8 |
| 20260508030440 | 72 | 291 | 4.0 | 6.0 | 0.00 | 0.00 | 0.00 | 91 | 1008.8 |
| 20260508025937 | 72 | 60 | 2.0 | 3.0 | 0.00 | 0.00 | 0.00 | 91 | 1009.0 |
| 20260508025433 | 72 | 291 | 2.0 | 4.0 | 0.00 | 0.00 | 0.00 | 90 | 1008.9 |
| 20260508024931 | 72 | 24 | 2.0 | 3.0 | 0.00 | 0.00 | 0.00 | 90 | 1009.2 |
| 20260508024427 | 72 | 256 | 0.0 | 0.0 | 0.00 | 0.00 | 0.00 | 89 | 1009.1 |
| 20260508023923 | 72 | 137 | 1.0 | 2.0 | 0.00 | 0.00 | 0.00 | 89 | 1008.9 |
| 20260508023420 | 72 | 285 | 2.0 | 2.0 | 0.00 | 0.00 | 0.00 | 89 | 1009.1 |
| 20260508022917 | 72 | 34 | 2.0 | 2.0 | 0.00 | 0.00 | 0.00 | 89 | 1009.1 |
| 20260508022413 | 72 | 339 | 2.0 | 3.0 | 0.00 | 0.00 | 0.00 | 88 | 1008.9 |
| 20260508021910 | 72 | 111 | 1.0 | 2.0 | 0.00 | 0.00 | 0.00 | 88 | 1008.9 |
| 20260508021406 | 72 | 19 | 2.0 | 4.0 | 0.00 | 0.00 | 0.00 | 87 | 1008.7 |
| 20260508020902 | 72 | 227 | 0.0 | 0.0 | 0.00 | 0.00 | 0.00 | 87 | 1009.1 |
| 20260508020400 | 72 | 234 | 1.0 | 1.0 | 0.00 | 0.00 | 0.00 | 87 | 1009.0 |
| 20260508015857 | 72 | 249 | 1.0 | 1.0 | 0.00 | 0.00 | 0.00 | 87 | 1009.0 |
| 20260508015355 | 72 | 221 | 0.0 | 1.0 | 0.00 | 0.00 | 0.00 | 87 | 1008.8 |
| 20260508014851 | 72 | 252 | 1.0 | 1.0 | 0.00 | 0.00 | 0.00 | 87 | 1009.0 |
| 20260508014348 | 72 | 227 | 1.0 | 2.0 | 0.00 | 0.00 | 0.00 | 87 | 1008.7 |
| 20260508013843 | 72 | 296 | 2.0 | 2.0 | 0.00 | 0.00 | 0.00 | 87 | 1008.9 |
| 20260508013340 | 72 | 229 | 0.0 | 1.0 | 0.00 | 0.00 | 0.00 | 87 | 1008.5 |
| 20260508012837 | 72 | 220 | 1.0 | 1.0 | 0.00 | 0.00 | 0.00 | 87 | 1008.7 |
| 20260508012335 | 72 | 293 | 1.0 | 1.0 | 0.00 | 0.00 | 0.00 | 87 | 1008.3 |
| 20260508011832 | 72 | 254 | 2.0 | 3.0 | 0.00 | 0.00 | 0.00 | 87 | 1008.4 |
| 20260508011330 | 72 | 33 | 3.0 | 4.0 | 0.00 | 0.00 | 0.00 | 87 | 1007.9 |
| 20260508010827 | 72 | 235 | 1.0 | 1.0 | 0.00 | 0.00 | 0.00 | 86 | 1008.1 |
| 20260508010324 | 72 | 345 | 3.0 | 3.0 | 0.00 | 0.00 | 0.00 | 86 | 1008.3 |
| 20260508005821 | 72 | 222 | 0.0 | 1.0 | 0.00 | 0.00 | 0.00 | 87 | 1008.3 |
| 20260508005318 | 73 | 229 | 0.0 | 0.0 | 0.00 | 0.00 | 0.00 | 86 | 1008.3 |
| 20260508004815 | 73 | 222 | 0.0 | 0.0 | 0.00 | 0.00 | 0.00 | 86 | 1008.2 |
| 20260508004311 | 73 | 236 | 0.0 | 1.0 | 0.00 | 0.00 | 0.00 | 86 | 1008.0 |
| 20260508003807 | 73 | 322 | 3.0 | 4.0 | 0.00 | 0.00 | 0.00 | 86 | 1008.0 |
| 20260508003305 | 73 | 221 | 0.0 | 1.0 | 0.00 | 0.00 | 0.00 | 86 | 1007.9 |
| 20260508002801 | 73 | 68 | 2.0 | 2.0 | 0.00 | 0.00 | 0.00 | 86 | 1008.0 |
| 20260508002258 | 73 | 322 | 3.0 | 4.0 | 0.00 | 0.00 | 0.00 | 86 | 1007.8 |
| 20260508001754 | 73 | 297 | 1.0 | 1.0 | 0.00 | 0.00 | 0.00 | 86 | 1007.9 |
| 20260508001250 | 73 | 287 | 1.0 | 2.0 | 0.00 | 0.00 | 0.00 | 86 | 1008.0 |
| 20260508000746 | 73 | 278 | 0.0 | 0.0 | 0.00 | 0.00 | 0.00 | 86 | 1007.9 |
| 20260508000243 | 73 | 357 | 2.0 | 6.0 | 0.00 | 0.00 | 0.00 | 85 | 1007.8 |
| 20260507235739 | 73 | 277 | 2.0 | 3.0 | 0.00 | 0.00 | 0.00 | 85 | 1007.9 |
| 20260507235238 | 73 | 61 | 2.0 | 3.0 | 0.00 | 0.00 | 0.00 | 85 | 1007.7 |
| 20260507234734 | 73 | 230 | 1.0 | 1.0 | 0.00 | 0.00 | 0.00 | 85 | 1007.9 |
| 20260507234231 | 73 | 10 | 2.0 | 3.0 | 0.00 | 0.00 | 0.00 | 85 | 1007.8 |
| 20260507233727 | 73 | 216 | 0.0 | 0.0 | 0.00 | 0.00 | 0.00 | 85 | 1007.8 |
| 20260507233225 | 73 | 231 | 3.0 | 4.0 | 0.00 | 0.00 | 0.00 | 84 | 1007.8 |
| 20260507232722 | 73 | 342 | 2.0 | 2.0 | 0.00 | 0.00 | 0.00 | 84 | 1007.7 |
| 20260507232219 | 73 | 299 | 2.0 | 2.0 | 0.00 | 0.00 | 0.00 | 84 | 1008.0 |
| 20260507231716 | 73 | 217 | 3.0 | 4.0 | 0.00 | 0.00 | 0.00 | 84 | 1008.1 |
| 20260507231213 | 74 | 249 | 1.0 | 2.0 | 0.00 | 0.00 | 0.00 | 84 | 1007.8 |
| 20260507230709 | 73 | 219 | 0.0 | 1.0 | 0.00 | 0.00 | 0.00 | 84 | 1008.2 |
| 20260507230207 | 74 | 215 | 2.0 | 3.0 | 0.00 | 0.00 | 0.00 | 84 | 1007.7 |
| 20260507225706 | 74 | 236 | 1.0 | 2.0 | 0.00 | 0.00 | 0.00 | 84 | 1007.8 |
| 20260507225203 | 74 | 271 | 2.0 | 2.0 | 0.00 | 0.00 | 0.00 | 84 | 1007.8 |
| 20260507224659 | 74 | 263 | 1.0 | 2.0 | 0.00 | 0.00 | 0.00 | 84 | 1007.8 |
| 20260507224155 | 74 | 214 | 1.0 | 1.0 | 0.00 | 0.00 | 0.00 | 84 | 1007.7 |
| 20260507223652 | 74 | 30 | 2.0 | 2.0 | 0.00 | 0.00 | 0.00 | 84 | 1007.7 |
| 20260507223149 | 74 | 246 | 0.0 | 2.0 | 0.00 | 0.00 | 0.00 | 84 | 1007.6 |
| 20260507222646 | 74 | 306 | 1.0 | 1.0 | 0.00 | 0.00 | 0.00 | 84 | 1007.7 |
| 20260507222142 | 74 | 134 | 0.0 | 1.0 | 0.00 | 0.00 | 0.00 | 84 | 1007.8 |
| 20260507221638 | 74 | 279 | 2.0 | 2.0 | 0.00 | 0.00 | 0.00 | 84 | 1008.0 |
| 20260507221134 | 74 | 299 | 4.0 | 4.0 | 0.00 | 0.00 | 0.00 | 84 | 1007.7 |
| 20260507220632 | 74 | 279 | 4.0 | 7.0 | 0.00 | 0.00 | 0.00 | 84 | 1007.7 |
| 20260507220130 | 74 | 246 | 2.0 | 2.0 | 0.00 | 0.00 | 0.00 | 84 | 1007.7 |
| 20260507215625 | 73 | 89 | 3.0 | 4.0 | 0.00 | 0.00 | 0.00 | 84 | 1007.9 |
| 20260507215123 | 73 | 293 | 4.0 | 6.0 | 0.00 | 0.00 | 0.00 | 84 | 1007.6 |
| 20260507214620 | 74 | 329 | 2.0 | 3.0 | 0.00 | 0.00 | 0.00 | 84 | 1007.4 |
| 20260507214117 | 74 | 344 | 5.0 | 7.0 | 0.00 | 0.00 | 0.00 | 84 | 1007.8 |
| 20260507213613 | 74 | 271 | 2.0 | 4.0 | 0.00 | 0.00 | 0.00 | 84 | 1007.7 |
| 20260507213110 | 74 | 167 | 2.0 | 3.0 | 0.00 | 0.00 | 0.00 | 84 | 1007.6 |
| 20260507212606 | 74 | 20 | 1.0 | 3.0 | 0.00 | 0.00 | 0.00 | 83 | 1007.8 |
| 20260507212103 | 74 | 300 | 3.0 | 4.0 | 0.00 | 0.00 | 0.00 | 84 | 1007.8 |
| 20260507211600 | 74 | 40 | 3.0 | 4.0 | 0.00 | 0.00 | 0.00 | 83 | 1008.0 |
| 20260507211055 | 74 | 216 | 1.0 | 1.0 | 0.00 | 0.00 | 0.00 | 84 | 1007.9 |
| 20260507210553 | 74 | 197 | 2.0 | 2.0 | 0.00 | 0.00 | 0.00 | 84 | 1007.7 |
| 20260507210050 | 73 | 341 | 6.0 | 8.0 | 0.00 | 0.00 | 0.00 | 85 | 1007.9 |
| 20260507205546 | 73 | 289 | 2.0 | 3.0 | 0.00 | 0.00 | 0.00 | 85 | 1008.2 |
| 20260507205043 | 73 | 192 | 2.0 | 3.0 | 0.00 | 0.00 | 0.00 | 86 | 1008.2 |
| 20260507204539 | 73 | 296 | 4.0 | 6.0 | 0.00 | 0.00 | 0.00 | 86 | 1008.1 |
| 20260507204037 | 73 | 264 | 2.0 | 2.0 | 0.00 | 0.00 | 0.00 | 86 | 1008.3 |
| 20260507203535 | 73 | 63 | 2.0 | 2.0 | 0.00 | 0.00 | 0.00 | 86 | 1008.4 |
| 20260507203032 | 73 | 223 | 1.0 | 2.0 | 0.00 | 0.00 | 0.00 | 86 | 1008.4 |
| 20260507202527 | 72 | 237 | 2.0 | 2.0 | 0.00 | 0.00 | 0.00 | 86 | 1008.5 |
| 20260507202024 | 72 | 213 | 1.0 | 1.0 | 0.00 | 0.00 | 0.00 | 87 | 1008.7 |
| 20260507201519 | 72 | 145 | 2.0 | 2.0 | 0.00 | 0.00 | 0.00 | 87 | 1008.7 |
| 20260507201016 | 72 | 16 | 4.0 | 6.0 | 0.00 | 0.00 | 0.00 | 87 | 1008.6 |
| 20260507200511 | 72 | 90 | 1.0 | 2.0 | 0.00 | 0.00 | 0.00 | 86 | 1008.8 |
| 20260507200008 | 72 | 323 | 2.0 | 3.0 | 0.00 | 0.00 | 0.00 | 86 | 1009.0 |
| 20260507195505 | 72 | 12 | 1.0 | 2.0 | 0.00 | 0.00 | 0.00 | 86 | 1008.9 |
| 20260507195003 | 72 | 351 | 4.0 | 6.0 | 0.00 | 0.00 | 0.00 | 86 | 1008.9 |
| 20260507194459 | 73 | 28 | 3.0 | 3.0 | 0.00 | 0.00 | 0.00 | 85 | 1008.8 |
| 20260507193955 | 73 | 284 | 2.0 | 2.0 | 0.00 | 0.00 | 0.00 | 85 | 1008.9 |
| 20260507193452 | 73 | 288 | 2.0 | 4.0 | 0.00 | 0.00 | 0.00 | 85 | 1009.0 |
| 20260507192949 | 73 | 300 | 3.0 | 7.0 | 0.00 | 0.00 | 0.00 | 85 | 1009.1 |
| 20260507192444 | 73 | 38 | 2.0 | 3.0 | 0.00 | 0.00 | 0.00 | 86 | 1009.1 |
| 20260507191942 | 73 | 42 | 2.0 | 4.0 | 0.00 | 0.00 | 0.00 | 86 | 1009.1 |
| 20260507191438 | 72 | 24 | 2.0 | 2.0 | 0.00 | 0.00 | 0.00 | 86 | 1009.4 |
| 20260507190934 | 72 | 248 | 3.0 | 6.0 | 0.00 | 0.00 | 0.00 | 85 | 1009.5 |
| 20260507190432 | 73 | 236 | 3.0 | 4.0 | 0.00 | 0.00 | 0.00 | 85 | 1009.6 |
| 20260507185931 | 72 | 0 | 3.0 | 4.0 | 0.00 | 0.00 | 0.00 | 85 | 1009.5 |
| 20260507185428 | 72 | 237 | 2.0 | 2.0 | 0.00 | 0.00 | 0.00 | 86 | 1009.6 |
| 20260507184924 | 72 | 310 | 1.0 | 3.0 | 0.00 | 0.00 | 0.00 | 87 | 1009.8 |
| 20260507184422 | 72 | 346 | 1.0 | 2.0 | 0.00 | 0.00 | 0.00 | 87 | 1009.9 |
| 20260507183920 | 71 | 272 | 3.0 | 6.0 | 0.00 | 0.00 | 0.00 | 86 | 1009.7 |
| 20260507183416 | 72 | 333 | 3.0 | 3.0 | 0.00 | 0.00 | 0.00 | 86 | 1010.0 |
| 20260507182914 | 71 | 201 | 2.0 | 3.0 | 0.00 | 0.00 | 0.00 | 86 | 1009.9 |
| 20260507182409 | 71 | 261 | 2.0 | 2.0 | 0.00 | 0.00 | 0.00 | 87 | 1010.2 |
| 20260507181906 | 71 | 263 | 1.0 | 2.0 | 0.00 | 0.00 | 0.00 | 87 | 1010.1 |
| 20260507181402 | 71 | 317 | 3.0 | 6.0 | 0.00 | 0.00 | 0.00 | 87 | 1010.2 |
| 20260507180859 | 71 | 17 | 2.0 | 2.0 | 0.00 | 0.00 | 0.00 | 87 | 1010.3 |
| 20260507180355 | 71 | 241 | 2.0 | 3.0 | 0.00 | 0.00 | 0.00 | 87 | 1010.3 |
| 20260507175852 | 71 | 287 | 4.0 | 6.0 | 0.00 | 0.00 | 0.00 | 87 | 1010.3 |
| 20260507175348 | 71 | 46 | 3.0 | 4.0 | 0.00 | 0.00 | 0.00 | 87 | 1010.6 |
| 20260507174846 | 71 | 203 | 2.0 | 2.0 | 0.00 | 0.00 | 0.00 | 87 | 1010.5 |
| 20260507174343 | 71 | 40 | 4.0 | 7.0 | 0.00 | 0.00 | 0.00 | 87 | 1010.4 |
| 20260507173841 | 71 | 250 | 2.0 | 3.0 | 0.00 | 0.00 | 0.00 | 87 | 1010.3 |
| 20260507173338 | 71 | 274 | 4.0 | 7.0 | 0.00 | 0.00 | 0.00 | 86 | 1010.4 |
| 20260507172834 | 71 | 317 | 2.0 | 3.0 | 0.00 | 0.00 | 0.00 | 87 | 1010.3 |
| 20260507172331 | 71 | 235 | 1.0 | 2.0 | 0.00 | 0.00 | 0.00 | 87 | 1010.6 |
| 20260507171827 | 71 | 330 | 4.0 | 6.0 | 0.00 | 0.00 | 0.00 | 87 | 1010.6 |
| 20260507171324 | 71 | 232 | 2.0 | 2.0 | 0.00 | 0.00 | 0.00 | 87 | 1010.2 |
| 20260507170821 | 71 | 209 | 1.0 | 2.0 | 0.00 | 0.00 | 0.00 | 87 | 1010.3 |
| 20260507170317 | 71 | 262 | 2.0 | 3.0 | 0.00 | 0.00 | 0.00 | 86 | 1010.3 |
| 20260507165813 | 71 | 221 | 1.0 | 2.0 | 0.00 | 0.00 | 0.00 | 87 | 1010.3 |
| 20260507165309 | 71 | 273 | 6.0 | 7.0 | 0.00 | 0.00 | 0.00 | 87 | 1010.0 |
| 20260507164805 | 71 | 274 | 4.0 | 6.0 | 0.00 | 0.00 | 0.00 | 86 | 1009.8 |
| 20260507164303 | 72 | 288 | 5.0 | 8.0 | 0.00 | 0.00 | 0.00 | 86 | 1009.9 |
| 20260507163800 | 72 | 202 | 2.0 | 2.0 | 0.00 | 0.00 | 0.00 | 86 | 1009.8 |
| 20260507163257 | 72 | 262 | 3.0 | 6.0 | 0.00 | 0.00 | 0.00 | 86 | 1009.6 |
| 20260507162753 | 71 | 274 | 3.0 | 6.0 | 0.00 | 0.00 | 0.00 | 86 | 1009.7 |
| 20260507162249 | 72 | 286 | 3.0 | 4.0 | 0.00 | 0.00 | 0.00 | 86 | 1009.8 |
| 20260507161746 | 71 | 219 | 3.0 | 6.0 | 0.00 | 0.00 | 0.00 | 87 | 1009.8 |
| 20260507161243 | 71 | 318 | 4.0 | 6.0 | 0.00 | 0.00 | 0.00 | 86 | 1009.8 |
| 20260507160738 | 71 | 256 | 2.0 | 2.0 | 0.00 | 0.00 | 0.00 | 87 | 1009.7 |
| 20260507160235 | 71 | 272 | 4.0 | 7.0 | 0.00 | 0.00 | 0.00 | 87 | 1009.8 |